Weather History for Owensboro, KY

Change the Weather History Date:

Monday, August 19, 2013

  Actual Average Record
Temperature  
Mean Temperature 75 °F -  
Max Temperature 86 °F 89 °F 102 °F (1936)
Min Temperature 64 °F 66 °F 52 °F (1943)
Cooling Degree Days 10    
Growing Degree Days 25 (Base 50)    
Moisture  
Dew Point 67 °F    
Average Humidity 78    
Maximum Humidity 100    
Minimum Humidity 49    
Precipitation  
Precipitation 0.00 in - - ()
Sea Level Pressure  
Sea Level Pressure 30.09 in    
Wind  
Wind Speed 2 mph (South)    
Max Wind Speed 8 mph    
Max Gust Speed -    
Visibility 9 miles    
Events      
Averages and records for this station are not official NWS values.
T = Trace of Precipitation, MM = Missing Value Source: NWS Daily Summary

Daily Weather History Graph

Daily Weather History Graph

Search for Another Location

Airport:

Trip Planner

Search our weather history database for the weather conditions in past years. The results will help you decide how hot, cold, wet, or windy it might be!

Date:

Astronomy

Aug. 19, 2013 Rise Set
Actual Time 6:07 AM CDT 7:35 PM CDT
Civil Twilight 5:40 AM CDT 8:03 PM CDT
Nautical Twilight 5:07 AM CDT 8:36 PM CDT
Astronomical Twilight 4:32 AM CDT 9:11 PM CDT
Moon 6:26 PM CDT (8/19) 4:27 AM CDT (8/19)
Length of Visible Light 14h 23m
Length of Day
13h 27m
Waxing Gibbous, 97% of the Moon is Illuminated
Aug 19
Waxing Gibbous
Aug 20
Full
Aug 28
Last Quarter
Sep 5
New
Sep 12
First Quarter

Hourly Weather History & Observations

Time (CDT) Temp. Heat Index Dew Point Humidity Pressure Visibility Wind Dir Wind Speed Gust Speed Precip Events Conditions
12:56 AM 68.9 °F - 68.0 °F 97% 30.11 in 10.0 mi Calm Calm - N/A   Mostly Cloudy
1:56 AM 68.0 °F - 68.0 °F 100% 30.10 in 10.0 mi SE 3.5 mph - N/A   Partly Cloudy
2:56 AM 66.9 °F - 66.9 °F 100% 30.11 in 9.0 mi Calm Calm - N/A   Scattered Clouds
3:56 AM 66.9 °F - 66.9 °F 100% 30.10 in 10.0 mi Calm Calm - N/A   Partly Cloudy
4:56 AM 64.9 °F - 64.9 °F 100% 30.10 in 8.0 mi Calm Calm - N/A   Clear
5:56 AM 64.9 °F - 64.9 °F 100% 30.11 in 7.0 mi Calm Calm - N/A   Clear
6:56 AM 64.9 °F - 64.9 °F 100% 30.12 in 6.0 mi Calm Calm - N/A   Clear
7:56 AM 70.9 °F - 68.9 °F 93% 30.13 in 7.0 mi Calm Calm - N/A   Clear
8:56 AM 73.9 °F - 70.9 °F 90% 30.13 in 6.0 mi SSW 4.6 mph - N/A   Haze
9:56 AM 77.9 °F - 68.9 °F 74% 30.14 in 10.0 mi Calm Calm - 0.00 in   Scattered Clouds
10:56 AM 81.0 °F 84.4 °F 70.0 °F 69% 30.13 in 10.0 mi South 6.9 mph - N/A   Scattered Clouds
11:56 AM 81.9 °F 84.8 °F 68.0 °F 63% 30.12 in 10.0 mi South 6.9 mph - N/A   Mostly Cloudy
12:56 PM 82.9 °F 85.0 °F 65.8 °F 56% 30.11 in 10.0 mi SW 4.6 mph - N/A   Mostly Cloudy
1:56 PM 83.8 °F 86.5 °F 66.9 °F 57% 30.09 in 10.0 mi SSW 8.1 mph - N/A   Mostly Cloudy
2:56 PM 84.9 °F 87.6 °F 66.9 °F 55% 30.08 in 10.0 mi SSW 6.9 mph - N/A   Mostly Cloudy
3:56 PM 84.9 °F 86.6 °F 64.9 °F 51% 30.06 in 10.0 mi Variable 3.5 mph - N/A   Scattered Clouds
4:56 PM 86.0 °F 87.6 °F 64.9 °F 49% 30.05 in 10.0 mi Calm Calm - N/A   Scattered Clouds
5:56 PM 84.9 °F 87.6 °F 66.9 °F 55% 30.05 in 10.0 mi Calm Calm - 0.00 in   Scattered Clouds
6:56 PM 81.9 °F 83.9 °F 65.8 °F 58% 30.04 in 10.0 mi NNE 3.5 mph - N/A   Partly Cloudy
7:56 PM 81.0 °F 83.0 °F 65.8 °F 60% 30.05 in 10.0 mi Calm Calm - N/A   Clear
8:56 PM 75.9 °F - 68.0 °F 76% 30.07 in 10.0 mi Calm Calm - N/A   Clear
9:56 PM 72.9 °F - 68.0 °F 85% 30.08 in 10.0 mi Calm Calm - N/A   Clear
10:56 PM 72.9 °F - 68.9 °F 87% 30.08 in 10.0 mi Calm Calm - N/A   Clear
11:56 PM 70.9 °F - 68.9 °F 93% 30.08 in 10.0 mi Calm Calm - N/A   Clear